SAS2766 LFMN-EKBI

Flight info

Callsign SAS2766
Flight time 1h 52m
Altitude 34000
Route IRMAR DCT KINES DCT VANAS DCT MOBLO DCT UBIMA DCT GILIR DCT PENDU DCT IXILU DCT EPL/N0409F320 DCT ROUSY/N0424F360 DCT ARCKY/N0428F370 DCT IBESA DCT HUNQI DCT IFTOC N873 REXMI DCT INSUS DCT GELBA
Aircraft A20N/M-SDE3FGIJ1RWXY/ALB1

Departure

Time 2026-05-04 14:10
Airport Nice-Côte d'Azur Airport (LFMN)

Arrival

Time 2026-05-04 16:03
Airport Billund Airport (EKBI)
Time Latitude Longitude Altitude Speed Heading
2026-05-04 13:03 43.66170 7.20676 22 ft 0 kts 261°
2026-05-04 13:59 43.66170 7.20680 21 ft 2 kts 261°
2026-05-04 13:59 43.66174 7.20715 23 ft 4 kts 261°
2026-05-04 13:59 43.66191 7.20772 26 ft 4 kts 196°
2026-05-04 14:00 43.66215 7.20773 22 ft 4 kts 169°
2026-05-04 14:00 43.66227 7.20770 22 ft 0 kts 169°
2026-05-04 14:04 43.66202 7.20776 21 ft 6 kts 169°
2026-05-04 14:04 43.66161 7.20788 22 ft 6 kts 169°
2026-05-04 14:04 43.66113 7.20801 21 ft 9 kts 169°
2026-05-04 14:05 43.65961 7.20825 21 ft 12 kts 178°
2026-05-04 14:05 43.65873 7.20784 21 ft 15 kts 216°
2026-05-04 14:05 43.65791 7.20679 22 ft 17 kts 225°
2026-05-04 14:06 43.65702 7.20554 22 ft 20 kts 225°
2026-05-04 14:06 43.65605 7.20421 22 ft 20 kts 224°
2026-05-04 14:06 43.65506 7.20285 22 ft 17 kts 225°
2026-05-04 14:06 43.65436 7.20193 22 ft 10 kts 214°
2026-05-04 14:07 43.65374 7.20188 24 ft 10 kts 161°
2026-05-04 14:07 43.65313 7.20249 43 ft 12 kts 136°
2026-05-04 14:07 43.65252 7.20331 22 ft 13 kts 134°
2026-05-04 14:07 43.65185 7.20422 22 ft 14 kts 135°
2026-05-04 14:08 43.65118 7.20497 22 ft 12 kts 156°
2026-05-04 14:08 43.65039 7.20503 23 ft 12 kts 199°
2026-05-04 14:08 43.64966 7.20427 22 ft 14 kts 224°
2026-05-04 14:08 43.64890 7.20324 22 ft 13 kts 225°
2026-05-04 14:09 43.64781 7.20322 22 ft 9 kts 115°
2026-05-04 14:09 43.64789 7.20402 22 ft 9 kts 57°
2026-05-04 14:10 43.65075 7.20806 24 ft 81 kts 45°
2026-05-04 14:10 43.65606 7.21544 25 ft 133 kts 44°
2026-05-04 14:10 43.66343 7.22488 380 ft 145 kts 50°
2026-05-04 14:10 43.66953 7.23571 991 ft 144 kts 67°
2026-05-04 14:11 43.67111 7.24953 1506 ft 157 kts 103°
2026-05-04 14:11 43.65303 7.27181 2488 ft 204 kts 147°
2026-05-04 14:11 43.64070 7.28269 3207 ft 213 kts 140°
2026-05-04 14:12 43.62935 7.29605 4243 ft 215 kts 133°
2026-05-04 14:12 43.61796 7.30917 5340 ft 215 kts 149°
2026-05-04 14:12 43.58876 7.30928 7265 ft 225 kts 209°
2026-05-04 14:13 43.57791 7.29362 8172 ft 232 kts 241°
2026-05-04 14:13 43.57456 7.27185 9139 ft 239 kts 270°
2026-05-04 14:13 43.57799 7.24914 10037 ft 246 kts 284°
2026-05-04 14:13 43.58401 7.22677 10605 ft 251 kts 288°
2026-05-04 14:14 43.59047 7.20445 10973 ft 251 kts 288°
2026-05-04 14:14 43.60248 7.15950 11826 ft 250 kts 285°
2026-05-04 14:14 43.60971 7.13758 12265 ft 256 kts 304°
2026-05-04 14:15 43.64124 7.11322 13225 ft 278 kts 340°
2026-05-04 14:15 43.68071 7.09643 14041 ft 316 kts 340°
2026-05-04 14:16 43.72508 7.07719 14775 ft 351 kts 340°
2026-05-04 14:16 43.74880 7.06674 15212 ft 364 kts 340°
2026-05-04 14:17 43.79831 7.04482 16292 ft 381 kts 340°
2026-05-04 14:17 43.82370 7.03355 16857 ft 385 kts 339°
2026-05-04 14:17 43.87521 7.01064 18019 ft 391 kts 339°
2026-05-04 14:18 43.90125 6.99904 18590 ft 395 kts 339°
2026-05-04 14:18 43.95352 6.97574 19628 ft 399 kts 339°
2026-05-04 14:19 44.00708 6.95178 20708 ft 404 kts 339°
2026-05-04 14:19 44.03403 6.93971 21273 ft 408 kts 339°
2026-05-04 14:19 44.06116 6.92756 21838 ft 411 kts 339°
2026-05-04 14:19 44.08812 6.91546 22418 ft 414 kts 339°
2026-05-04 14:20 44.11602 6.90294 23009 ft 417 kts 339°
2026-05-04 14:20 44.14405 6.89196 23617 ft 421 kts 345°
2026-05-04 14:20 44.17282 6.88605 24128 ft 426 kts 351°
2026-05-04 14:21 44.23202 6.87734 25162 ft 429 kts 350°
2026-05-04 14:21 44.26178 6.87279 25582 ft 434 kts 350°
2026-05-04 14:21 44.29206 6.86814 25807 ft 441 kts 350°
2026-05-04 14:21 44.32272 6.86349 26238 ft 444 kts 350°
2026-05-04 14:22 44.35355 6.85881 26660 ft 448 kts 349°
2026-05-04 14:22 44.38467 6.85407 27101 ft 451 kts 349°
2026-05-04 14:22 44.41603 6.84932 27479 ft 455 kts 349°
2026-05-04 14:22 44.44756 6.84453 27877 ft 458 kts 349°
2026-05-04 14:23 44.51120 6.83483 28686 ft 463 kts 349°
2026-05-04 14:23 44.54340 6.82991 29055 ft 466 kts 349°
2026-05-04 14:23 44.57572 6.82498 29407 ft 469 kts 349°
2026-05-04 14:24 44.60833 6.81999 29765 ft 472 kts 349°
2026-05-04 14:24 44.64104 6.81498 30085 ft 475 kts 349°
2026-05-04 14:24 44.67398 6.80994 30444 ft 477 kts 349°
2026-05-04 14:24 44.70697 6.80488 30844 ft 478 kts 349°
2026-05-04 14:25 44.74009 6.79980 31154 ft 480 kts 349°
2026-05-04 14:25 44.80642 6.79009 32016 ft 479 kts 352°
2026-05-04 14:25 44.83969 6.78802 32443 ft 478 kts 353°
2026-05-04 14:26 44.87286 6.78593 32800 ft 477 kts 352°
2026-05-04 14:26 44.90596 6.78378 33233 ft 476 kts 352°
2026-05-04 14:26 44.93903 6.78160 33601 ft 475 kts 352°
2026-05-04 14:26 44.97192 6.77941 33936 ft 473 kts 352°
2026-05-04 14:27 45.03744 6.77504 34132 ft 471 kts 352°
2026-05-04 14:27 45.10288 6.77064 34144 ft 470 kts 352°
2026-05-04 14:28 45.16836 6.76624 34130 ft 470 kts 353°
2026-05-04 14:28 45.23366 6.76185 34126 ft 471 kts 353°
2026-05-04 14:29 45.36462 6.75306 34114 ft 470 kts 353°
2026-05-04 14:30 45.43002 6.74864 34106 ft 471 kts 353°
2026-05-04 14:31 45.52818 6.74201 34098 ft 471 kts 353°
2026-05-04 14:32 45.65899 6.73312 34084 ft 470 kts 353°
2026-05-04 14:32 45.72439 6.72866 34068 ft 471 kts 353°
2026-05-04 14:33 45.79007 6.72417 34123 ft 475 kts 353°
2026-05-04 14:33 45.82309 6.72191 34410 ft 475 kts 353°
2026-05-04 14:33 45.85608 6.71967 34732 ft 473 kts 353°
2026-05-04 14:33 45.88886 6.71744 35022 ft 473 kts 353°
2026-05-04 14:34 45.92180 6.71518 35269 ft 473 kts 353°
2026-05-04 14:34 45.95466 6.71292 35546 ft 472 kts 353°
2026-05-04 14:34 45.98743 6.71067 35813 ft 472 kts 353°
2026-05-04 14:34 46.01979 6.70844 35987 ft 472 kts 353°
2026-05-04 14:35 46.05258 6.70619 36057 ft 471 kts 353°
2026-05-04 14:35 46.11772 6.69829 36059 ft 466 kts 345°
2026-05-04 14:36 46.17087 6.68327 36054 ft 466 kts 343°
2026-05-04 14:36 46.24481 6.66163 36049 ft 467 kts 344°
2026-05-04 14:37 46.29823 6.64654 36050 ft 467 kts 345°
2026-05-04 14:37 46.36204 6.62867 36045 ft 467 kts 345°
2026-05-04 14:38 46.42583 6.61079 36042 ft 467 kts 345°
2026-05-04 14:38 46.48954 6.59287 36036 ft 466 kts 345°
2026-05-04 14:39 46.55320 6.57491 36028 ft 466 kts 345°
2026-05-04 14:39 46.61699 6.55688 36031 ft 467 kts 345°
2026-05-04 14:40 46.71256 6.52978 36031 ft 468 kts 345°
2026-05-04 14:40 46.77650 6.51160 36031 ft 468 kts 345°
2026-05-04 14:41 46.84049 6.49335 36026 ft 469 kts 345°
2026-05-04 14:42 46.96893 6.45661 36027 ft 471 kts 345°
2026-05-04 14:42 47.03331 6.43812 36028 ft 472 kts 345°
2026-05-04 14:43 47.09786 6.41954 36034 ft 473 kts 345°
2026-05-04 14:43 47.16253 6.40087 36034 ft 474 kts 345°
2026-05-04 14:44 47.22733 6.38212 36031 ft 475 kts 345°
2026-05-04 14:44 47.29215 6.36333 36023 ft 475 kts 345°
2026-05-04 14:45 47.35692 6.34451 36014 ft 473 kts 345°
2026-05-04 14:45 47.42154 6.32567 36013 ft 474 kts 345°
2026-05-04 14:46 47.48618 6.30677 36015 ft 474 kts 345°
2026-05-04 14:46 47.55050 6.28793 36015 ft 474 kts 345°
2026-05-04 14:47 47.61560 6.26881 36017 ft 474 kts 345°
2026-05-04 14:47 47.68040 6.24973 36023 ft 475 kts 345°
2026-05-04 14:48 47.74524 6.23059 36032 ft 477 kts 345°
2026-05-04 14:48 47.81014 6.21139 36018 ft 474 kts 345°
2026-05-04 14:49 47.87486 6.19219 36021 ft 475 kts 345°
2026-05-04 14:49 47.93962 6.17292 36013 ft 475 kts 345°
2026-05-04 14:50 48.00444 6.15359 36017 ft 475 kts 345°
2026-05-04 14:50 48.06930 6.13420 36007 ft 475 kts 345°
2026-05-04 14:51 48.13408 6.11478 36002 ft 475 kts 345°
2026-05-04 14:51 48.19893 6.09530 35995 ft 475 kts 345°
2026-05-04 14:52 48.26369 6.07580 35992 ft 475 kts 346°
2026-05-04 14:52 48.29665 6.07031 35993 ft 479 kts 357°
2026-05-04 14:52 48.32969 6.07078 35991 ft 479 kts 358°
2026-05-04 14:53 48.39645 6.07212 35991 ft 479 kts 359°
2026-05-04 14:53 48.46311 6.07395 35994 ft 479 kts 359°
2026-05-04 14:54 48.52986 6.07599 35992 ft 479 kts 359°
2026-05-04 14:54 48.59653 6.07805 35991 ft 479 kts 359°
2026-05-04 14:55 48.66329 6.08010 35993 ft 480 kts 359°
2026-05-04 14:55 48.72985 6.08216 35996 ft 480 kts 359°
2026-05-04 14:56 48.79663 6.08423 35998 ft 480 kts 359°
2026-05-04 14:56 48.86349 6.08630 35997 ft 480 kts 359°
2026-05-04 14:57 48.93030 6.08838 35995 ft 480 kts 359°
2026-05-04 14:57 48.99712 6.09047 35998 ft 480 kts 359°
2026-05-04 14:58 49.06397 6.09257 36000 ft 481 kts 359°
2026-05-04 14:58 49.13081 6.09466 36000 ft 480 kts 359°
2026-05-04 14:59 49.19770 6.09676 36002 ft 480 kts 359°
2026-05-04 15:00 49.29787 6.09993 35992 ft 478 kts 359°
2026-05-04 15:00 49.36435 6.10203 35993 ft 479 kts 359°
2026-05-04 15:01 49.46384 6.10519 35995 ft 479 kts 359°
2026-05-04 15:01 49.53041 6.10731 35993 ft 478 kts 359°
2026-05-04 15:02 49.59724 6.10945 35988 ft 477 kts 359°
2026-05-04 15:02 49.66311 6.11157 35979 ft 475 kts 358°
2026-05-04 15:03 49.72962 6.11371 35975 ft 474 kts 359°
2026-05-04 15:03 49.79548 6.11582 35971 ft 473 kts 359°
2026-05-04 15:04 49.86171 6.11795 35995 ft 477 kts 359°
2026-05-04 15:04 49.92810 6.12010 35996 ft 476 kts 359°
2026-05-04 15:05 49.99438 6.12226 35995 ft 477 kts 359°
2026-05-04 15:05 50.06071 6.12442 35994 ft 477 kts 359°
2026-05-04 15:06 50.12698 6.12659 35995 ft 476 kts 359°
2026-05-04 15:07 50.22641 6.12984 35993 ft 476 kts 358°
2026-05-04 15:07 50.29235 6.14082 35988 ft 479 kts
2026-05-04 15:08 50.35773 6.16008 35983 ft 479 kts
2026-05-04 15:08 50.39056 6.16995 36086 ft 481 kts
2026-05-04 15:08 50.42342 6.17995 36368 ft 480 kts
2026-05-04 15:08 50.45610 6.18999 36661 ft 478 kts
2026-05-04 15:09 50.48870 6.20003 36882 ft 477 kts
2026-05-04 15:09 50.55368 6.22010 36976 ft 475 kts
2026-05-04 15:10 50.65092 6.25025 36977 ft 475 kts
2026-05-04 15:11 50.74819 6.28054 36983 ft 475 kts
2026-05-04 15:11 50.81305 6.30082 36986 ft 475 kts
2026-05-04 15:12 50.87787 6.32114 36988 ft 475 kts
2026-05-04 15:12 50.94273 6.34153 36996 ft 476 kts
2026-05-04 15:13 51.00768 6.36202 36995 ft 476 kts
2026-05-04 15:13 51.07259 6.38254 36978 ft 476 kts
2026-05-04 15:14 51.13754 6.40314 36977 ft 476 kts
2026-05-04 15:14 51.20240 6.42377 36977 ft 475 kts
2026-05-04 15:15 51.26730 6.44446 36971 ft 475 kts
2026-05-04 15:15 51.33215 6.46520 36969 ft 475 kts
2026-05-04 15:16 51.41826 6.49284 36968 ft 475 kts
2026-05-04 15:17 51.51578 6.52426 36970 ft 474 kts
2026-05-04 15:17 51.61284 6.55567 36956 ft 474 kts
2026-05-04 15:18 51.67719 6.57657 36962 ft 475 kts
2026-05-04 15:19 51.77430 6.60823 36965 ft 475 kts
2026-05-04 15:19 51.87147 6.64005 36956 ft 475 kts
2026-05-04 15:20 51.93674 6.66150 36972 ft 476 kts
2026-05-04 15:20 52.00165 6.68289 36958 ft 476 kts
2026-05-04 15:21 52.06611 6.70420 36967 ft 476 kts
2026-05-04 15:22 52.16393 6.73666 36964 ft 476 kts
2026-05-04 15:22 52.26135 6.76913 36985 ft 476 kts
2026-05-04 15:23 52.32619 6.79083 36983 ft 476 kts
2026-05-04 15:23 52.39065 6.81246 36973 ft 476 kts
2026-05-04 15:24 52.52069 6.85629 36977 ft 475 kts
2026-05-04 15:25 52.58503 6.87808 36977 ft 474 kts
2026-05-04 15:26 52.68190 6.91100 36977 ft 473 kts
2026-05-04 15:26 52.77860 6.94401 36979 ft 473 kts
2026-05-04 15:27 52.87539 6.97721 36975 ft 469 kts
2026-05-04 15:28 52.97119 7.01021 36988 ft 468 kts
2026-05-04 15:29 53.06670 7.04326 36994 ft 467 kts
2026-05-04 15:30 53.28847 7.12059 36995 ft 464 kts
2026-05-04 15:31 53.38305 7.15382 36992 ft 463 kts
2026-05-04 15:32 53.54039 7.20944 36988 ft 463 kts
2026-05-04 15:34 53.69790 7.26552 37001 ft 463 kts
2026-05-04 15:34 53.79251 7.29942 37004 ft 463 kts
2026-05-04 15:35 53.88720 7.33350 37006 ft 464 kts
2026-05-04 15:36 53.98185 7.36772 37008 ft 464 kts
2026-05-04 15:36 54.04496 7.39063 37008 ft 464 kts
2026-05-04 15:37 54.10806 7.41361 37011 ft 464 kts
2026-05-04 15:37 54.17120 7.43667 37014 ft 464 kts
2026-05-04 15:38 54.23427 7.45978 37019 ft 463 kts
2026-05-04 15:38 54.29728 7.48294 37023 ft 463 kts
2026-05-04 15:39 54.35976 7.50598 37022 ft 463 kts
2026-05-04 15:40 54.45407 7.54090 37024 ft 462 kts
2026-05-04 15:40 54.48549 7.55257 36883 ft 462 kts
2026-05-04 15:40 54.51681 7.56422 36625 ft 460 kts
2026-05-04 15:40 54.54809 7.57587 36369 ft 459 kts
2026-05-04 15:41 54.57937 7.58754 36118 ft 460 kts
2026-05-04 15:41 54.61063 7.59922 35869 ft 460 kts
2026-05-04 15:41 54.64187 7.61091 35623 ft 460 kts
2026-05-04 15:41 54.67313 7.62263 35379 ft 460 kts
2026-05-04 15:42 54.70435 7.63435 35139 ft 459 kts
2026-05-04 15:42 54.73556 7.64609 34894 ft 458 kts
2026-05-04 15:42 54.76670 7.65781 34610 ft 459 kts
2026-05-04 15:42 54.79798 7.66959 34009 ft 461 kts
2026-05-04 15:43 54.82943 7.68144 33120 ft 464 kts
2026-05-04 15:43 54.86111 7.69340 32206 ft 466 kts 10°
2026-05-04 15:43 54.89275 7.70536 31444 ft 465 kts 10°
2026-05-04 15:43 54.92420 7.71728 30875 ft 459 kts 10°
2026-05-04 15:44 54.95520 7.72907 30304 ft 454 kts 11°
2026-05-04 15:44 54.98529 7.74476 29700 ft 450 kts 19°
2026-05-04 15:44 55.01355 7.76748 29136 ft 445 kts 27°
2026-05-04 15:44 55.03947 7.79633 28599 ft 440 kts 35°
2026-05-04 15:45 55.06399 7.82773 28048 ft 434 kts 34°
2026-05-04 15:45 55.08827 7.85838 27504 ft 429 kts 34°
2026-05-04 15:45 55.11230 7.88870 26971 ft 424 kts 34°
2026-05-04 15:45 55.13598 7.91870 26438 ft 419 kts 34°
2026-05-04 15:46 55.15951 7.94862 25912 ft 415 kts 33°
2026-05-04 15:46 55.18243 7.97789 25364 ft 412 kts 34°
2026-05-04 15:46 55.20374 8.01214 24400 ft 422 kts 47°
2026-05-04 15:46 55.22056 8.05505 22875 ft 436 kts 58°
2026-05-04 15:47 55.23522 8.10222 21457 ft 443 kts 61°
2026-05-04 15:47 55.24931 8.14998 20464 ft 438 kts 61°
2026-05-04 15:47 55.26316 8.19719 19533 ft 432 kts 61°
2026-05-04 15:47 55.27678 8.24333 18971 ft 419 kts 61°
2026-05-04 15:48 55.29019 8.28853 18403 ft 415 kts 60°
2026-05-04 15:48 55.30348 8.33314 17833 ft 411 kts 60°
2026-05-04 15:48 55.32954 8.42063 16738 ft 400 kts 60°
2026-05-04 15:49 55.34234 8.46369 16193 ft 396 kts 60°
2026-05-04 15:49 55.35500 8.50637 15672 ft 392 kts 61°
2026-05-04 15:49 55.36751 8.54861 15143 ft 388 kts 61°
2026-05-04 15:49 55.37988 8.59047 14625 ft 384 kts 61°
2026-05-04 15:50 55.39216 8.63210 14106 ft 381 kts 61°
2026-05-04 15:50 55.40430 8.67331 13574 ft 379 kts 61°
2026-05-04 15:50 55.41626 8.71400 13050 ft 374 kts 61°
2026-05-04 15:50 55.42821 8.75473 12552 ft 371 kts 61°
2026-05-04 15:51 55.43999 8.79497 12053 ft 367 kts 61°
2026-05-04 15:51 55.45163 8.83473 11560 ft 364 kts 61°
2026-05-04 15:51 55.46314 8.87414 11069 ft 361 kts 61°
2026-05-04 15:51 55.47458 8.91339 10582 ft 359 kts 61°
2026-05-04 15:52 55.48584 8.95215 10304 ft 350 kts 61°
2026-05-04 15:52 55.49670 8.98957 10176 ft 336 kts 61°
2026-05-04 15:52 55.50715 9.02565 10051 ft 323 kts 61°
2026-05-04 15:52 55.51721 9.06040 9816 ft 315 kts 61°
2026-05-04 15:53 55.52712 9.09467 9450 ft 312 kts 61°
2026-05-04 15:53 55.53691 9.12854 9064 ft 309 kts 61°
2026-05-04 15:53 55.54663 9.16220 8684 ft 306 kts 61°
2026-05-04 15:53 55.55624 9.19555 8307 ft 303 kts 61°
2026-05-04 15:54 55.56577 9.22863 7930 ft 302 kts 61°
2026-05-04 15:54 55.57523 9.26158 7574 ft 300 kts 61°
2026-05-04 15:54 55.58464 9.29438 7193 ft 298 kts 61°
2026-05-04 15:54 55.59397 9.32697 6833 ft 296 kts 62°
2026-05-04 15:55 55.60326 9.35948 6474 ft 295 kts 61°
2026-05-04 15:55 55.61250 9.39185 6062 ft 295 kts 62°
2026-05-04 15:55 55.62175 9.42425 5656 ft 294 kts 62°
2026-05-04 15:55 55.63093 9.45649 5255 ft 292 kts 61°
2026-05-04 15:56 55.63703 9.47797 4998 ft 287 kts 62°
2026-05-04 15:56 55.64856 9.51868 4691 ft 270 kts 61°
2026-05-04 15:56 55.65863 9.54475 4553 ft 250 kts 38°
2026-05-04 15:56 55.67298 9.55877 4435 ft 226 kts
2026-05-04 15:57 55.68302 9.56047 4371 ft 214 kts 351°
2026-05-04 15:57 55.69669 9.55374 4304 ft 199 kts 332°
2026-05-04 15:57 55.70912 9.54430 4206 ft 190 kts 333°
2026-05-04 15:57 55.72127 9.53525 3981 ft 189 kts 334°
2026-05-04 15:58 55.73354 9.52609 3711 ft 188 kts 332°
2026-05-04 15:58 55.74373 9.51323 3583 ft 178 kts 305°
2026-05-04 15:58 55.74903 9.49350 3505 ft 179 kts 283°
2026-05-04 15:58 55.75039 9.47113 3413 ft 186 kts 271°
2026-05-04 15:59 55.74990 9.44788 3271 ft 192 kts 268°
2026-05-04 15:59 55.74906 9.42453 3089 ft 190 kts 269°
2026-05-04 15:59 55.74826 9.40119 2821 ft 185 kts 269°
2026-05-04 15:59 55.74752 9.37875 2577 ft 179 kts 269°
2026-05-04 16:00 55.74684 9.35733 2328 ft 174 kts 269°
2026-05-04 16:00 55.74614 9.33621 2081 ft 169 kts 269°
2026-05-04 16:00 55.74546 9.31582 1861 ft 163 kts 269°
2026-05-04 16:00 55.74487 9.29663 1642 ft 149 kts 270°
2026-05-04 16:01 55.74431 9.27909 1447 ft 136 kts 269°
2026-05-04 16:01 55.74380 9.26323 1257 ft 121 kts 270°
2026-05-04 16:01 55.74336 9.24906 1076 ft 113 kts 269°
2026-05-04 16:01 55.74289 9.23476 960 ft 119 kts 269°
2026-05-04 16:02 55.74239 9.21986 770 ft 121 kts 268°
2026-05-04 16:02 55.74203 9.20514 614 ft 119 kts 266°
2026-05-04 16:02 55.74107 9.17568 236 ft 117 kts 267°
2026-05-04 16:03 55.74068 9.16304 216 ft 77 kts 266°
2026-05-04 16:03 55.74047 9.15614 216 ft 47 kts 267°
2026-05-04 16:03 55.74032 9.15096 216 ft 36 kts 266°
2026-05-04 16:03 55.74019 9.14711 216 ft 26 kts 267°
2026-05-04 16:04 55.74027 9.14521 219 ft 11 kts 309°
2026-05-04 16:04 55.74208 9.14480 216 ft 14 kts 359°
2026-05-04 16:04 55.74311 9.14474 220 ft 16 kts 357°
2026-05-04 16:05 55.74398 9.14467 220 ft 9 kts
2026-05-04 16:05 55.74439 9.14537 216 ft 10 kts 72°
2026-05-04 16:05 55.74447 9.14729 220 ft 3 kts 86°
2026-05-04 16:06 55.74457 9.14743 222 ft 3 kts 34°
2026-05-04 16:06 55.74528 9.14749 219 ft 1 kts
2026-05-04 16:07 55.74534 9.14749 218 ft 0 kts 360°